Photometre #847[NE_1.6_Dp] Glasgow_MO AOT

File : 20210610_847.hum

10/06/2021,04:56:13,TEMP=14.7,BA=5.68,STAT.A,ExtBa=12.10
10/06/2021,05:01:24,TEMP=14.8,BA=5.68,STAT.A,ExtBa=12.10
10/06/2021,05:07:24,TEMP=14.8,BA=5.68,STAT.A,ExtBa=12.10
10/06/2021,05:14:26,TEMP=14.9,BA=5.68,STAT.A,ExtBa=12.10
10/06/2021,05:22:46,TEMP=14.9,BA=5.68,STAT.A,ExtBa=12.10
10/06/2021,05:32:53,TEMP=15.0,BA=5.68,STAT.A,ExtBa=12.10
10/06/2021,05:44:24,TEMP=15.1,BA=5.68,STAT.D,ExtBa=12.10
10/06/2021,05:46:24,TEMP=15.6,BA=5.68,STAT.B,ExtBa=12.10
10/06/2021,05:51:17,TEMP=15.4,BA=5.68,STAT.A,ExtBa=12.10
10/06/2021,05:57:48,TEMP=15.4,BA=5.68,STAT.A,ExtBa=12.10
10/06/2021,06:05:04,TEMP=15.4,BA=5.68,STAT.A,ExtBa=12.10
10/06/2021,06:13:14,TEMP=15.4,BA=5.68,STAT.A,ExtBa=12.10
10/06/2021,06:22:29,TEMP=15.5,BA=5.68,STAT.C,ExtBa=12.10
10/06/2021,06:33:04,TEMP=15.5,BA=5.68,STAT.A,ExtBa=12.10
10/06/2021,06:44:24,TEMP=15.6,BA=5.68,STAT.D,ExtBa=12.10
10/06/2021,06:46:24,TEMP=16.0,BA=5.68,STAT.A,ExtBa=12.10
10/06/2021,06:59:43,TEMP=15.8,BA=5.68,STAT.A,ExtBa=12.10
10/06/2021,07:12:24,TEMP=15.8,BA=5.68,STAT.D,ExtBa=12.10
10/06/2021,07:16:57,TEMP=16.0,BA=5.68,STAT.A,ExtBa=12.10
10/06/2021,07:28:24,TEMP=16.0,BA=5.68,STAT.D,ExtBa=12.10
10/06/2021,07:38:07,TEMP=16.1,BA=5.64,STAT.B,ExtBa=12.10
10/06/2021,07:52:24,TEMP=16.7,BA=5.68,STAT.D,ExtBa=12.10
10/06/2021,08:04:24,TEMP=17.0,BA=5.68,STAT.D,ExtBa=12.10
10/06/2021,08:16:24,TEMP=17.3,BA=5.68,STAT.D,ExtBa=12.10
10/06/2021,08:21:35,TEMP=17.6,BA=5.68,STAT.B,ExtBa=12.10
10/06/2021,08:32:24,TEMP=17.6,BA=5.68,STAT.D,ExtBa=12.10
10/06/2021,08:34:23,TEMP=18.1,BA=5.68,STAT.D,ExtBa=12.10
10/06/2021,08:47:47,TEMP=17.7,BA=5.68,STAT.D,ExtBa=12.10
10/06/2021,09:00:24,TEMP=17.5,BA=5.68,STAT.D,ExtBa=12.10
10/06/2021,09:02:48,TEMP=17.8,BA=5.68,STAT.D,ExtBa=12.10
10/06/2021,09:16:25,TEMP=17.8,BA=5.68,STAT.D,ExtBa=12.10
10/06/2021,09:18:26,TEMP=18.3,BA=5.68,STAT.F,ExtBa=12.10
10/06/2021,09:32:25,TEMP=18.2,BA=5.68,STAT.D,ExtBa=12.10
10/06/2021,09:34:25,TEMP=18.6,BA=5.68,STAT.D,ExtBa=12.10
10/06/2021,09:47:48,TEMP=18.6,BA=5.68,STAT.D,ExtBa=12.10
10/06/2021,10:00:25,TEMP=18.5,BA=5.68,STAT.D,ExtBa=12.10
10/06/2021,10:02:48,TEMP=18.8,BA=5.68,STAT.D,ExtBa=12.10
10/06/2021,10:16:25,TEMP=18.6,BA=5.68,STAT.D,ExtBa=12.10
10/06/2021,10:18:25,TEMP=19.1,BA=5.68,STAT.F,ExtBa=12.10
10/06/2021,10:32:25,TEMP=18.9,BA=5.68,STAT.D,ExtBa=12.10
10/06/2021,10:34:24,TEMP=19.3,BA=5.68,STAT.D,ExtBa=12.10
10/06/2021,10:47:48,TEMP=19.1,BA=5.68,STAT.D,ExtBa=12.10
10/06/2021,10:52:25,TEMP=19.6,BA=5.64,STAT.D,ExtBa=12.10
10/06/2021,10:56:25,TEMP=20.0,BA=5.64,STAT.D,ExtBa=12.10
10/06/2021,11:00:25,TEMP=20.2,BA=5.68,STAT.D,ExtBa=12.10
10/06/2021,11:02:48,TEMP=20.5,BA=5.68,STAT.D,ExtBa=12.00
10/06/2021,11:08:25,TEMP=20.5,BA=5.68,STAT.D,ExtBa=12.10
10/06/2021,11:12:25,TEMP=20.9,BA=5.60,STAT.D,ExtBa=12.10
10/06/2021,11:16:25,TEMP=21.2,BA=5.60,STAT.D,ExtBa=12.10
10/06/2021,11:18:28,TEMP=21.6,BA=5.60,STAT.F,ExtBa=12.00
10/06/2021,11:32:25,TEMP=21.0,BA=5.68,STAT.D,ExtBa=12.10
10/06/2021,11:34:30,TEMP=21.4,BA=5.68,STAT.D,ExtBa=12.00
10/06/2021,11:44:25,TEMP=20.3,BA=5.64,STAT.D,ExtBa=12.10
10/06/2021,11:47:48,TEMP=20.1,BA=5.64,STAT.D,ExtBa=12.10
10/06/2021,12:00:25,TEMP=18.9,BA=5.64,STAT.D,ExtBa=12.10
10/06/2021,12:02:48,TEMP=19.1,BA=5.64,STAT.D,ExtBa=12.10
10/06/2021,12:16:25,TEMP=18.6,BA=5.64,STAT.D,ExtBa=12.10
10/06/2021,12:18:18,TEMP=19.0,BA=5.64,STAT.F,ExtBa=12.10
10/06/2021,12:32:25,TEMP=18.2,BA=5.64,STAT.D,ExtBa=12.10
10/06/2021,12:34:23,TEMP=18.6,BA=5.64,STAT.D,ExtBa=12.10
10/06/2021,12:47:48,TEMP=17.7,BA=5.64,STAT.D,ExtBa=12.10
10/06/2021,13:00:25,TEMP=17.7,BA=5.68,STAT.D,ExtBa=12.10
10/06/2021,13:02:48,TEMP=18.0,BA=5.68,STAT.D,ExtBa=12.10
10/06/2021,13:16:25,TEMP=18.0,BA=5.68,STAT.D,ExtBa=12.10
10/06/2021,13:18:25,TEMP=18.5,BA=5.68,STAT.F,ExtBa=12.10
10/06/2021,13:32:25,TEMP=17.9,BA=5.68,STAT.D,ExtBa=12.10
10/06/2021,13:34:24,TEMP=18.4,BA=5.68,STAT.D,ExtBa=12.10
10/06/2021,13:47:48,TEMP=17.9,BA=5.56,STAT.D,ExtBa=12.10
10/06/2021,14:00:25,TEMP=17.9,BA=5.68,STAT.D,ExtBa=12.10
10/06/2021,14:02:48,TEMP=18.2,BA=5.68,STAT.D,ExtBa=12.10
10/06/2021,14:16:25,TEMP=18.1,BA=5.68,STAT.D,ExtBa=12.10
10/06/2021,14:18:25,TEMP=18.6,BA=5.68,STAT.F,ExtBa=12.10
10/06/2021,14:32:25,TEMP=17.3,BA=5.68,STAT.D,ExtBa=12.10
10/06/2021,14:34:24,TEMP=17.7,BA=5.68,STAT.D,ExtBa=12.10
10/06/2021,14:47:48,TEMP=18.1,BA=5.68,STAT.D,ExtBa=12.10
10/06/2021,15:00:25,TEMP=18.9,BA=5.68,STAT.D,ExtBa=12.10
10/06/2021,15:02:48,TEMP=19.4,BA=5.68,STAT.D,ExtBa=12.10
10/06/2021,15:16:24,TEMP=19.7,BA=5.68,STAT.D,ExtBa=12.10
10/06/2021,15:18:41,TEMP=20.2,BA=5.68,STAT.F,ExtBa=12.00
10/06/2021,15:32:24,TEMP=20.0,BA=5.68,STAT.D,ExtBa=12.10
10/06/2021,15:34:24,TEMP=20.5,BA=5.68,STAT.D,ExtBa=12.10
10/06/2021,15:47:47,TEMP=19.4,BA=5.68,STAT.D,ExtBa=12.10
10/06/2021,16:00:24,TEMP=18.8,BA=5.68,STAT.D,ExtBa=12.10
10/06/2021,16:02:47,TEMP=19.0,BA=5.68,STAT.D,ExtBa=12.10
10/06/2021,16:14:03,TEMP=18.0,BA=5.68,STAT.B,ExtBa=12.10
10/06/2021,16:24:24,TEMP=19.3,BA=5.56,STAT.D,ExtBa=12.00
10/06/2021,16:28:24,TEMP=19.9,BA=5.56,STAT.D,ExtBa=12.00
10/06/2021,16:32:24,TEMP=20.5,BA=5.56,STAT.D,ExtBa=12.00
10/06/2021,16:36:24,TEMP=21.0,BA=5.56,STAT.D,ExtBa=12.00
10/06/2021,16:40:24,TEMP=21.4,BA=5.64,STAT.D,ExtBa=12.00
10/06/2021,16:44:24,TEMP=21.7,BA=5.64,STAT.D,ExtBa=12.00
10/06/2021,16:48:24,TEMP=22.0,BA=5.64,STAT.D,ExtBa=12.00
10/06/2021,16:52:24,TEMP=22.1,BA=5.56,STAT.D,ExtBa=12.00
10/06/2021,16:56:24,TEMP=22.1,BA=5.56,STAT.D,ExtBa=12.00
10/06/2021,16:58:49,TEMP=22.4,BA=5.56,STAT.B,ExtBa=12.00
10/06/2021,17:08:24,TEMP=22.1,BA=5.56,STAT.D,ExtBa=12.00
10/06/2021,17:12:24,TEMP=21.8,BA=5.56,STAT.D,ExtBa=12.00
10/06/2021,17:16:24,TEMP=21.7,BA=5.56,STAT.D,ExtBa=12.00
10/06/2021,17:18:42,TEMP=22.1,BA=5.56,STAT.A,ExtBa=12.00
10/06/2021,17:24:24,TEMP=21.7,BA=5.56,STAT.D,ExtBa=12.00
10/06/2021,17:28:24,TEMP=21.7,BA=5.56,STAT.D,ExtBa=12.00
10/06/2021,17:32:24,TEMP=21.9,BA=5.56,STAT.D,ExtBa=12.00
10/06/2021,17:35:53,TEMP=21.9,BA=5.56,STAT.A,ExtBa=12.00
10/06/2021,17:40:24,TEMP=21.8,BA=5.64,STAT.D,ExtBa=12.00
10/06/2021,17:44:24,TEMP=21.8,BA=5.64,STAT.D,ExtBa=12.00
10/06/2021,17:48:24,TEMP=21.7,BA=5.64,STAT.D,ExtBa=12.00
10/06/2021,17:50:27,TEMP=22.0,BA=5.56,STAT.A,ExtBa=12.00
10/06/2021,17:56:24,TEMP=21.3,BA=5.56,STAT.D,ExtBa=12.00
10/06/2021,18:00:25,TEMP=21.3,BA=5.64,STAT.D,ExtBa=12.00
10/06/2021,18:02:32,TEMP=21.6,BA=5.64,STAT.A,ExtBa=12.00
10/06/2021,18:08:24,TEMP=21.1,BA=5.64,STAT.D,ExtBa=12.00
10/06/2021,18:12:24,TEMP=21.1,BA=5.56,STAT.D,ExtBa=12.00
10/06/2021,18:14:27,TEMP=21.4,BA=5.56,STAT.C,ExtBa=12.00
10/06/2021,18:40:50,TEMP=21.3,BA=5.52,STAT.A,ExtBa=11.90
10/06/2021,18:44:10,TEMP=20.9,BA=5.52,STAT.A,ExtBa=12.00
10/06/2021,18:46:24,TEMP=21.0,BA=5.52,STAT.A,ExtBa=12.00
10/06/2021,18:48:41,TEMP=21.0,BA=5.52,STAT.A,ExtBa=11.90
10/06/2021,18:51:01,TEMP=20.9,BA=5.52,STAT.B,ExtBa=11.90
10/06/2021,19:02:43,TEMP=20.2,BA=5.52,STAT.A,ExtBa=12.00
10/06/2021,19:08:24,TEMP=19.9,BA=5.52,STAT.D,ExtBa=12.00
10/06/2021,19:12:24,TEMP=19.9,BA=5.52,STAT.D,ExtBa=12.00
10/06/2021,19:14:31,TEMP=20.1,BA=5.52,STAT.A,ExtBa=11.90
10/06/2021,19:20:24,TEMP=19.5,BA=5.60,STAT.D,ExtBa=12.00
10/06/2021,19:22:28,TEMP=19.8,BA=5.60,STAT.A,ExtBa=11.90
10/06/2021,19:28:12,TEMP=19.1,BA=5.60,STAT.A,ExtBa=12.00
10/06/2021,19:32:24,TEMP=18.9,BA=5.52,STAT.D,ExtBa=12.00
10/06/2021,19:34:25,TEMP=19.1,BA=5.52,STAT.A,ExtBa=12.00
10/06/2021,19:39:23,TEMP=18.5,BA=5.52,STAT.A,ExtBa=12.00